Wind_Speed
22 20 18 17 15 13 12 11 9 8 8 7 6 5 5 5 5 5 5 5 5 5 5 6 6 7 7 7 7 8 9 10 11 11 12 13 14 14 14 14 14 14 15 15 15 16 16 16 17 17 17 17 17 16 16 16 15 14 14 14 13 13 13 13 13 13 12 13 13 13 14 14 15 15 16 16 16 16 17 17 17 17 17 17 17 17
18 16 15 14 12 11 10 9 8 7 7 6 6 5 4 4 4 5 5 5 5 6 6 6 7 7 8 7 7 7 8 9 10 11 11 12 12 12 13 13 13 13 13 14 14 14 15 16 16 16 16 16 16 16 15 14 14 13 13 13 13 12 12 13 13 13 13 13 13 14 14 15 16 16 16 16 16 16 16 17 17 17 17 17 17 17
15 13 12 11 10 9 8 7 6 6 6 6 6 5 5 5 5 5 6 6 6 7 7 8 8 9 9 9 8 8 9 10 10 11 11 11 12 12 12 13 13 13 13 14 14 15 15 16 16 16 16 16 16 15 14 14 13 13 13 13 13 13 13 13 14 14 14 14 14 15 15 16 16 17 17 16 16 16 16 16 17 17 17 17 18 18
13 11 9 9 8 7 6 6 6 6 6 6 6 6 6 6 6 7 7 7 8 8 9 9 10 10 11 11 10 10 10 11 11 12 12 12 13 13 14 14 14 14 14 15 15 16 16 16 17 17 17 16 16 15 14 14 14 14 14 14 14 14 14 14 15 15 15 15 15 16 16 17 17 17 18 18 18 17 17 17 18 18 18 19 19 19
11 8 7 7 6 6 6 6 6 6 6 7 7 7 8 8 8 8 9 10 10 10 10 11 11 12 12 12 12 12 12 13 13 13 14 14 14 14 15 15 15 15 15 16 16 16 17 17 17 17 16 16 16 15 15 14 14 14 14 14 14 14 15 15 15 15 15 15 15 16 16 17 17 18 18 19 19 19 19 19 19 20 20 20 20 21
8 7 6 6 6 6 6 6 7 7 8 8 9 9 9 10 10 10 11 11 12 12 12 12 13 13 14 14 13 13 13 14 14 14 14 14 15 15 15 15 15 16 16 16 16 17 17 16 16 16 16 16 15 15 15 14 14 14 14 14 14 14 14 14 14 14 14 14 15 15 15 16 17 17 18 19 19 20 20 20 21 21 21 21 21 21
7 7 6 6 6 7 7 7 8 9 9 10 10 11 11 12 12 12 12 13 13 13 13 14 14 14 15 14 14 13 13 13 13 13 14 14 14 14 14 15 15 15 15 15 16 16 16 15 15 15 15 15 15 15 14 14 14 14 14 13 13 13 14 14 14 14 14 14 15 15 15 15 16 16 17 17 18 19 19 20 20 20 21 21 21 21
7 7 7 7 8 8 8 9 9 10 10 11 12 12 13 13 14 14 14 14 14 13 13 13 14 14 14 14 13 12 12 12 13 13 13 13 13 14 14 14 14 14 14 15 15 15 15 15 15 15 15 15 15 15 15 15 14 14 14 14 14 14 14 14 14 15 15 15 15 16 16 16 16 16 16 17 17 18 18 18 19 19 20 20 19 19
7 8 9 9 9 9 10 10 11 11 11 12 12 12 12 13 14 15 15 15 14 13 12 11 12 12 13 13 12 12 12 12 12 12 13 13 14 14 13 13 13 14 14 14 14 15 15 15 15 15 15 16 16 16 16 15 15 15 14 14 15 15 15 15 16 16 16 16 16 17 17 17 17 17 17 17 18 18 18 18 18 19 19 19 18 17
8 9 10 11 11 11 11 12 12 13 12 12 13 13 12 12 11 11 12 13 14 13 11 10 10 11 12 13 12 12 12 12 12 12 12 13 14 14 14 14 14 14 14 15 15 15 15 15 15 16 16 16 16 16 16 16 16 16 15 15 16 16 16 16 17 17 17 17 17 18 18 18 18 18 18 19 19 19 19 19 19 19 18 18 17 16
9 10 11 12 13 13 13 14 14 14 13 13 14 14 13 12 10 8 7 9 12 13 12 11 10 11 11 12 12 12 12 12 13 13 13 13 13 14 14 15 15 15 15 15 15 15 15 15 15 16 16 16 17 17 17 17 17 16 16 16 16 17 17 17 17 17 18 18 18 18 19 19 19 19 19 20 20 20 20 19 19 19 18 18 16 15
11 12 13 13 14 14 14 15 15 14 13 12 12 12 12 10 9 8 8 9 11 13 13 13 12 12 11 12 12 12 13 13 13 14 14 14 14 14 15 14 15 15 15 15 15 15 15 15 16 16 16 16 17 17 17 17 17 16 16 16 17 17 17 17 18 18 18 18 18 19 19 19 20 20 20 20 20 20 20 20 19 19 18 17 15 13
13 14 14 15 15 15 14 14 14 13 11 10 9 10 10 10 9 9 10 11 13 14 13 13 13 13 13 12 12 12 12 13 13 14 14 15 15 15 15 15 14 14 15 15 15 15 16 16 16 16 16 16 17 17 17 17 17 16 16 17 17 17 17 18 18 18 18 18 19 19 19 19 19 20 20 20 20 20 20 19 19 18 17 15 14 12
14 14 14 14 14 14 13 12 11 10 11 11 11 11 11 11 11 11 10 11 13 14 13 12 11 12 14 13 12 11 12 12 13 13 13 14 14 15 16 15 15 15 15 15 15 16 16 16 16 16 16 16 17 17 16 16 16 16 16 17 17 17 17 17 17 18 18 18 18 18 19 19 19 19 19 19 19 19 19 18 18 17 15 14 13 12
13 12 12 11 12 12 11 11 10 11 13 13 12 12 12 12 12 11 10 10 12 13 13 12 10 10 12 13 13 12 12 12 13 13 13 13 13 14 15 16 15 15 15 15 15 16 16 16 16 17 17 17 16 16 15 15 15 16 16 16 16 16 16 16 17 17 17 17 18 18 18 18 18 18 18 18 18 18 17 17 16 15 14 13 13 12
11 10 10 10 10 11 11 11 11 12 13 13 12 12 11 11 12 12 11 11 12 12 13 12 10 8 8 12 13 13 13 13 14 14 14 13 13 13 14 15 16 16 15 15 15 16 16 16 16 16 16 16 16 15 15 14 14 15 15 15 15 15 15 15 15 16 16 16 17 17 16 16 16 16 16 16 16 16 16 15 14 14 13 13 13 13
10 9 8 8 8 10 12 12 11 12 12 13 12 12 12 12 12 12 12 12 12 12 12 12 10 7 6 9 12 14 13 14 14 15 15 13 13 13 14 15 15 16 15 15 15 15 16 16 16 16 15 15 15 15 14 14 14 14 14 14 14 14 14 14 14 14 15 15 15 15 15 15 15 15 15 15 15 14 14 13 13 13 12 12 12 13
8 8 8 7 8 9 11 11 11 12 12 12 12 12 12 11 11 11 11 11 11 11 11 11 10 8 6 7 11 15 14 14 15 15 15 14 13 13 14 15 15 15 15 15 15 15 16 15 15 15 14 14 14 14 14 13 13 13 12 12 12 12 12 12 12 13 13 13 13 13 13 14 14 14 15 15 14 14 13 12 12 11 11 12 12 13
8 8 7 7 8 10 11 11 11 11 11 11 12 11 11 11 11 11 11 11 10 10 10 10 10 10 9 8 10 13 14 15 15 16 16 15 14 13 14 15 15 15 15 15 15 15 15 15 14 14 14 13 13 13 12 12 12 11 11 11 11 11 11 11 11 11 12 12 12 12 13 13 13 14 14 14 14 14 13 12 12 11 11 12 12 12
8 8 8 8 9 9 10 11 11 12 12 12 11 11 11 11 11 11 11 11 10 10 10 10 10 10 11 10 11 12 13 14 15 16 16 16 15 14 14 15 15 15 14 14 14 14 14 14 14 14 13 13 12 12 12 11 11 11 10 11 11 11 11 11 11 11 11 12 12 12 13 13 13 13 14 14 14 14 14 14 13 13 12 12 13 13
7 8 9 9 9 9 8 10 13 13 12 11 11 11 11 11 11 11 11 11 11 11 11 10 10 11 11 11 11 11 12 13 14 16 16 16 15 14 14 14 15 15 14 14 13 13 13 13 13 13 13 13 12 12 11 11 11 10 10 10 10 10 10 11 11 11 11 12 12 12 13 13 13 13 14 14 14 14 15 15 15 15 14 14 14 14
7 8 9 10 9 9 10 12 13 13 11 11 11 11 12 11 11 10 10 10 11 11 11 10 10 11 11 11 11 11 12 12 13 14 16 16 15 13 14 14 15 15 14 13 12 12 12 12 13 13 13 13 12 12 11 11 11 11 10 10 10 10 10 11 11 11 12 12 12 13 13 13 14 14 14 14 14 14 15 15 15 15 16 15 15 15
7 8 10 10 10 10 11 13 13 12 11 11 11 11 11 11 10 10 10 10 10 10 10 10 10 10 10 11 11 11 11 11 12 13 15 16 15 13 13 14 15 15 14 12 12 12 12 12 12 13 13 13 12 12 12 12 12 11 11 11 10 10 11 11 11 11 12 12 13 13 14 14 14 14 14 14 14 15 15 15 15 16 16 16 16 15
8 9 10 10 9 10 11 12 12 12 11 11 11 10 11 11 11 11 10 10 10 10 10 10 10 10 10 10 11 11 11 10 11 12 14 16 16 14 13 14 15 14 13 12 11 11 11 12 12 13 13 13 13 12 12 12 12 12 12 11 11 11 11 11 11 11 12 12 13 13 14 14 15 15 15 15 15 15 15 16 16 16 16 16 16 16
9 9 10 9 9 9 10 11 12 11 11 10 10 10 11 11 11 10 10 9 9 10 10 10 10 10 10 10 11 12 12 11 11 12 14 16 16 15 13 13 14 14 13 12 11 11 11 12 12 13 13 13 13 12 12 12 13 13 12 12 12 12 12 12 12 12 12 12 13 13 14 14 14 15 15 15 15 16 16 16 17 17 17 16 16 16
9 9 9 9 9 9 10 10 11 10 10 10 10 11 11 11 10 10 9 9 10 10 11 12 12 12 12 11 11 11 13 13 12 12 13 15 16 15 13 13 14 14 13 12 11 11 11 11 12 12 13 13 13 12 12 12 12 13 13 13 13 13 13 12 12 13 13 13 13 13 14 14 14 14 15 15 15 16 16 16 17 17 17 17 17 17
9 9 9 9 9 9 9 10 10 10 10 10 10 10 10 10 11 11 11 10 11 11 12 12 13 14 13 13 11 10 12 14 14 13 13 14 15 15 14 13 14 14 13 12 11 10 11 11 11 11 11 11 12 12 12 12 12 12 13 13 13 13 13 13 13 13 13 13 14 14 14 14 14 15 15 15 15 15 16 16 16 17 17 17 17 17
10 10 10 9 9 9 9 9 10 10 10 10 10 10 10 11 12 12 12 11 11 12 12 13 14 15 15 14 13 12 12 13 14 14 12 13 14 14 14 14 14 14 14 13 11 11 11 11 10 10 10 10 10 11 11 12 12 13 13 13 13 13 13 13 13 14 14 14 14 14 14 15 15 15 15 15 16 16 16 16 16 17 17 17 18 18
10 10 10 9 9 9 9 9 9 9 9 9 10 10 11 11 12 13 12 12 12 13 14 14 15 15 16 15 15 14 13 12 12 13 12 13 14 15 14 14 14 14 14 14 13 12 12 11 10 9 9 9 10 10 11 12 13 13 13 13 14 14 14 14 14 14 14 14 14 15 15 15 15 15 16 16 16 16 16 17 17 17 18 18 18 18
10 9 9 9 9 9 9 9 9 9 9 10 10 11 11 12 12 13 13 13 13 14 15 15 15 15 15 16 16 15 13 11 11 12 12 13 15 15 15 15 15 14 14 15 15 15 13 11 10 10 10 11 11 12 12 13 13 13 13 14 14 14 14 14 14 14 14 14 14 15 15 15 15 15 16 16 16 16 17 17 17 18 18 18 19 19
10 10 10 10 10 10 10 10 10 10 11 11 11 12 12 13 13 14 14 14 14 15 15 16 15 15 15 15 15 13 12 12 13 13 13 14 15 15 15 15 15 14 13 14 15 15 14 12 11 12 13 13 13 13 13 13 13 13 13 13 13 14 14 14 14 15 15 15 15 15 15 15 15 15 15 16 16 16 17 17 17 18 18 19 19 19
11 12 12 12 12 12 12 12 12 12 12 13 13 13 14 14 15 15 15 15 15 15 16 16 16 15 15 15 14 13 12 14 15 15 14 14 15 15 14 15 15 14 12 12 13 14 13 14 14 15 16 16 16 15 15 15 15 14 14 13 13 13 13 14 15 15 16 16 15 15 15 15 15 15 15 15 16 16 17 17 17 18 18 19 19 19
12 12 12 13 13 13 13 14 14 14 14 14 14 15 15 15 15 16 16 16 16 16 16 16 16 16 16 16 15 15 13 14 16 16 14 14 14 14 14 14 14 14 13 13 13 13 14 16 18 18 18 18 18 17 17 17 16 16 15 14 14 13 14 14 15 16 16 17 16 16 15 15 15 15 15 15 15 16 16 17 17 18 18 19 19 19
11 12 12 13 13 13 14 14 14 14 15 15 15 15 15 15 16 16 16 16 16 15 15 15 15 16 16 16 16 15 13 13 15 16 14 14 14 15 14 14 14 14 14 14 14 15 16 17 18 19 20 20 19 19 19 18 18 17 16 15 15 15 14 14 15 15 16 17 17 17 16 16 15 15 15 15 15 16 16 17 17 18 18 18 19 19
11 12 12 12 13 13 14 14 14 15 15 15 15 15 15 15 15 15 15 15 15 15 15 15 15 15 15 16 17 16 13 12 14 16 15 14 14 15 15 15 14 14 14 15 15 16 17 18 18 20 21 21 21 20 19 19 19 19 18 17 17 16 15 15 15 15 16 17 17 17 17 17 16 16 16 16 16 16 17 17 17 18 18 18 19 19
12 12 12 13 13 14 14 14 14 15 15 16 16 16 16 15 15 15 15 15 14 14 14 14 14 14 14 15 16 16 14 14 16 16 15 15 14 15 15 15 14 14 15 15 16 17 18 19 19 20 21 22 23 21 20 19 19 20 20 19 18 17 16 15 14 14 15 16 16 17 17 17 17 17 17 17 17 17 17 17 18 18 18 19 19 19
13 13 13 13 13 14 14 14 15 15 15 16 16 16 16 16 16 15 15 14 14 13 13 13 14 14 14 14 15 15 14 15 16 16 16 15 14 15 15 15 14 14 14 15 16 18 19 20 21 21 22 22 23 22 22 21 21 21 20 19 18 16 15 14 13 13 14 15 15 16 17 17 17 17 17 17 17 17 18 18 18 18 19 19 19 19
13 13 13 13 14 14 14 15 15 15 15 16 16 16 16 16 16 16 15 15 14 13 13 13 13 13 14 14 14 14 14 15 15 15 15 15 14 14 15 15 14 14 14 15 16 18 19 20 22 22 23 23 22 22 22 22 22 21 20 18 17 15 13 12 12 12 12 13 14 15 16 17 17 17 17 17 17 18 18 18 18 19 19 19 19 19
14 14 14 14 14 15 15 15 15 15 15 16 16 16 16 16 16 16 16 15 14 14 13 13 13 13 13 13 14 14 14 14 14 14 14 14 14 14 15 15 15 15 15 16 16 18 19 20 21 22 23 23 23 23 22 22 21 20 19 17 15 14 12 11 11 10 11 11 12 13 14 15 16 16 16 17 17 17 18 18 18 18 18 19 19 19
14 14 14 14 15 15 15 15 15 15 16 16 16 16 16 16 16 16 16 15 15 14 14 14 14 14 13 13 13 13 13 13 14 14 14 14 14 14 15 15 15 15 16 16 17 18 19 20 21 22 22 23 23 23 22 21 20 19 18 17 15 14 12 11 10 10 10 10 11 12 13 13 14 15 16 16 17 17 17 17 18 18 18 18 19 19
15 15 14 15 15 16 16 16 15 15 16 16 16 16 16 16 16 15 15 15 15 15 14 14 14 14 13 13 12 12 12 13 13 13 13 14 14 14 15 15 15 15 16 17 18 19 20 20 21 21 21 21 22 22 21 20 18 17 17 16 16 15 13 12 11 10 10 10 10 11 11 12 13 14 15 16 16 17 17 17 17 18 18 18 19 19
15 15 15 15 16 16 16 16 16 16 16 16 16 16 16 16 16 16 16 16 16 15 15 14 14 14 13 13 12 12 12 12 12 13 13 13 14 14 14 15 15 16 16 17 19 19 20 20 21 21 20 20 20 20 20 18 17 16 15 15 15 15 14 13 11 11 10 10 10 10 11 12 12 13 15 15 16 17 17 17 17 18 18 18 19 19
15 15 15 15 16 16 16 16 16 16 16 16 16 16 16 16 16 16 16 16 16 16 15 15 15 15 14 14 13 12 12 12 12 12 12 13 13 13 14 14 15 16 17 18 19 20 20 21 20 20 19 19 19 19 18 17 16 15 14 14 14 15 14 13 12 11 11 11 10 10 11 11 12 13 14 15 16 17 17 18 18 18 18 18 18 19
16 16 16 16 16 16 16 16 16 16 16 16 16 16 16 16 15 16 16 16 16 15 15 15 15 15 15 15 14 13 13 13 12 12 12 12 13 13 14 14 15 16 17 18 19 19 20 20 20 19 18 18 18 17 17 16 15 14 13 13 13 14 14 13 12 11 11 11 10 10 11 11 12 13 14 15 16 17 17 18 18 18 18 18 19 19
17 17 16 16 16 16 16 16 16 16 16 17 16 16 16 16 15 16 16 16 16 15 15 15 15 15 15 15 14 13 13 13 13 13 13 13 13 13 14 15 15 16 17 18 18 19 19 19 19 18 18 17 17 16 15 15 14 14 13 12 12 12 13 12 12 12 12 12 12 11 11 11 12 13 14 14 15 16 17 17 18 18 19 19 19 19
18 17 17 16 16 16 16 16 16 16 16 16 16 16 16 16 16 16 16 16 16 15 15 15 15 16 16 15 14 14 14 14 14 14 14 14 14 14 14 15 15 16 17 17 18 18 18 17 17 17 16 16 16 16 15 14 14 13 13 12 12 12 12 12 12 12 13 13 13 13 13 13 13 14 14 15 15 16 16 17 18 18 19 19 20 20
19 18 17 17 17 16 16 16 16 16 16 16 16 16 16 15 15 15 16 16 16 16 16 16 16 16 15 15 14 14 14 14 14 14 15 15 15 16 15 15 16 16 16 16 17 17 17 16 16 16 15 16 16 15 15 14 14 13 13 13 12 12 13 13 12 12 13 13 14 14 14 14 15 15 16 16 16 16 17 17 18 18 19 20 20 21
19 19 18 18 17 17 17 17 16 16 16 16 16 16 16 15 15 15 16 16 16 16 16 16 16 15 15 15 14 14 14 14 14 14 15 15 16 17 17 17 17 16 16 15 15 16 16 16 16 16 16 16 16 16 15 14 14 13 13 13 13 13 13 13 13 13 13 14 14 14 15 15 16 16 17 17 18 18 18 18 18 18 19 19 20 21
20 19 19 19 18 18 18 17 17 17 17 16 16 16 16 16 15 15 16 16 16 16 16 16 16 16 16 15 15 14 14 14 15 14 14 15 16 16 17 18 17 17 16 15 15 15 16 16 17 17 16 16 16 16 15 15 14 13 13 13 13 13 13 14 14 14 14 15 15 16 16 17 17 18 18 19 20 20 19 19 19 18 18 19 19 20
20 20 19 19 19 19 18 18 17 17 17 17 17 16 16 16 16 16 16 16 16 17 16 16 16 16 16 16 15 15 15 15 15 15 15 15 15 15 16 16 16 16 16 16 16 16 16 17 18 17 16 16 15 15 15 15 14 14 14 14 14 14 15 15 15 16 16 17 18 19 19 20 20 20 20 21 21 22 22 21 21 20 19 18 18 19
20 20 20 20 19 19 19 18 18 18 17 17 17 17 17 17 17 17 16 16 17 17 17 17 17 17 17 16 16 15 15 15 15 15 15 15 15 15 15 15 15 15 16 16 16 16 17 18 19 19 18 16 15 15 14 14 15 15 15 15 15 15 16 16 17 18 19 19 20 21 21 22 22 22 22 22 23 24 24 24 23 22 20 19 19 19
Wind_Direction
282 284 285 285 285 287 290 293 295 295 294 293 293 293 295 298 299 297 295 293 290 288 286 285 284 283 281 277 271 267 265 264 265 265 266 267 269 270 272 273 273 273 272 272 272 273 274 276 277 279 279 280 281 281 280 279 277 275 272 270 268 265 261 257 253 249 246 242 240 240 240 242 244 246 248 249 248 246 243 242 242 243 243 243 242 241
281 281 280 281 283 286 288 292 293 291 290 291 291 292 293 296 297 296 292 288 284 282 281 280 278 277 276 275 270 266 264 265 266 268 269 270 272 273 275 276 276 276 275 275 276 277 277 279 279 279 280 279 279 278 277 275 273 271 270 268 266 263 259 255 252 248 244 240 239 239 240 243 245 247 248 249 249 247 245 244 244 244 244 245 245 244
281 279 277 279 281 284 286 290 289 286 284 286 288 289 291 293 295 293 292 287 284 283 281 280 279 277 277 277 276 272 270 270 271 273 274 274 275 275 276 277 278 278 279 279 280 280 280 279 279 278 278 277 276 275 274 272 271 271 270 269 267 264 261 257 254 250 247 243 241 241 242 244 247 248 249 250 249 248 247 245 245 244 245 245 245 246
282 280 277 279 281 283 283 284 283 282 280 282 284 286 288 290 290 289 288 287 285 282 281 280 279 278 278 279 280 278 276 276 277 277 278 278 278 278 279 279 279 280 280 281 281 280 280 279 279 278 277 277 276 275 274 273 273 272 271 270 269 266 263 261 258 255 252 249 246 245 245 246 248 250 251 251 251 250 249 247 247 247 247 248 249 249
280 279 278 279 280 281 281 280 280 280 281 283 284 285 287 287 287 286 286 285 284 283 282 280 279 278 278 279 280 279 279 279 279 280 280 280 281 281 281 281 281 281 281 281 281 281 281 280 280 279 279 279 279 278 277 276 275 273 272 271 270 268 267 265 263 261 258 255 251 248 247 247 248 250 251 252 252 252 252 251 251 251 251 252 253 254
276 275 275 276 276 276 277 278 279 281 284 286 286 287 287 286 286 285 285 285 284 283 282 282 281 280 280 280 281 281 281 281 282 282 282 281 282 282 282 282 282 282 282 282 282 282 282 282 282 282 282 282 281 281 280 278 277 275 274 273 271 271 270 269 269 267 265 262 258 255 252 250 249 249 250 252 253 253 253 254 254 255 255 256 257 257
269 270 271 271 271 273 275 278 281 284 286 288 289 289 288 287 286 285 284 284 283 283 283 283 283 283 283 284 285 285 285 285 284 284 283 283 282 282 282 282 283 282 282 282 282 283 283 283 283 283 283 283 282 282 280 279 278 277 276 275 274 273 273 272 272 271 270 268 266 263 260 256 254 252 252 252 252 253 254 255 255 256 257 257 257 258
265 269 271 272 274 275 277 280 283 286 288 290 291 291 291 290 289 288 286 285 284 284 285 286 287 287 287 289 291 292 291 291 290 289 287 286 285 284 283 283 283 283 283 283 283 284 284 284 284 284 283 283 282 282 281 280 279 279 278 277 276 275 274 273 272 272 271 270 269 268 266 264 262 260 258 256 256 255 255 255 256 256 257 257 257 257
266 273 278 278 280 283 285 284 285 287 289 290 290 289 291 292 293 294 294 291 288 286 287 289 290 290 291 293 295 295 294 293 292 292 291 291 290 289 287 286 285 284 284 284 284 284 284 284 284 284 283 283 282 282 281 280 280 279 279 278 277 276 275 274 273 272 271 271 270 269 268 267 266 265 263 262 261 260 259 258 258 258 258 259 258 258
273 278 283 285 286 288 290 289 288 289 289 289 288 286 285 285 288 292 296 295 293 291 291 290 290 290 291 293 294 294 292 291 289 289 289 290 291 292 291 290 288 287 287 286 286 285 285 284 284 284 283 283 283 283 282 281 281 280 279 279 278 276 275 274 273 273 272 271 270 270 269 268 267 265 265 264 263 263 262 261 261 261 261 262 261 260
280 283 286 288 289 290 290 290 290 290 290 289 287 284 282 280 278 276 274 281 287 292 294 293 290 288 289 290 291 291 290 289 287 287 287 287 288 289 290 290 290 290 290 289 288 288 287 287 286 285 285 285 284 284 283 283 282 281 280 279 277 276 275 274 273 273 272 272 271 270 269 268 266 265 263 263 262 262 262 263 263 263 264 264 263 260
283 286 287 287 288 289 290 290 290 290 288 287 286 285 283 282 279 272 262 261 271 283 291 295 293 290 288 288 289 291 290 290 290 291 292 292 292 291 291 291 292 292 293 292 292 292 291 290 289 288 288 287 286 286 285 284 284 283 282 280 278 276 275 274 273 272 272 271 270 270 269 268 266 265 263 262 261 261 262 262 263 263 264 263 262 257
284 285 287 287 287 287 287 288 288 287 284 278 270 269 277 284 283 277 272 271 275 281 289 294 297 296 293 290 290 292 292 292 293 295 297 299 300 299 299 299 299 298 298 298 298 297 297 295 294 293 292 291 289 288 287 287 287 285 283 281 278 276 275 274 273 272 272 270 269 268 267 266 265 264 263 261 261 260 260 261 261 262 262 261 257 251
283 285 285 285 284 284 285 284 284 282 277 274 271 274 282 284 283 280 277 278 282 287 292 295 300 302 301 298 296 296 297 297 298 299 301 302 303 304 304 304 304 304 303 303 302 302 301 300 300 299 298 296 294 292 292 291 289 286 283 280 278 277 275 274 273 272 271 270 268 266 265 263 262 261 260 259 259 259 258 258 259 259 258 255 250 243
281 282 281 280 279 280 280 279 276 274 275 277 278 279 281 282 281 281 280 279 283 288 294 297 302 305 302 301 302 303 303 303 304 305 306 306 306 305 305 305 306 307 307 307 306 304 304 303 303 303 302 301 299 298 297 295 291 287 284 282 280 278 277 275 274 272 270 268 266 264 263 261 259 258 256 256 255 255 255 255 255 254 252 249 245 238
277 276 272 273 275 276 275 274 273 274 277 279 279 277 277 279 281 283 284 284 285 289 294 297 301 302 296 296 300 303 305 306 307 307 309 310 308 306 305 306 307 308 310 310 308 307 306 305 305 305 305 304 304 304 301 297 293 290 287 285 283 281 279 277 275 273 271 268 266 263 261 258 256 254 253 252 251 251 251 250 250 248 247 245 241 237
271 268 265 264 268 271 273 274 274 275 278 280 280 278 277 278 281 285 287 288 289 290 292 295 298 298 291 290 295 301 305 307 307 308 309 311 311 308 306 307 308 309 311 311 310 308 307 307 307 307 307 307 307 306 304 301 298 294 292 289 287 285 283 280 277 274 272 270 267 264 261 258 255 252 250 248 246 245 246 246 245 244 244 243 241 237
263 261 259 254 258 266 272 276 277 276 277 278 280 280 280 281 282 284 285 287 289 290 292 295 298 297 287 274 288 300 306 307 308 308 309 312 313 311 308 308 309 311 313 313 312 310 309 309 309 309 309 309 309 308 307 305 302 299 295 292 289 287 284 281 278 275 272 270 268 266 263 260 257 254 251 247 243 241 241 242 243 243 243 244 242 239
261 259 255 249 253 263 271 277 278 277 276 275 277 281 285 286 286 287 288 289 290 292 294 297 299 299 295 284 288 298 306 308 308 308 309 312 315 315 310 310 311 312 314 315 314 312 311 310 310 310 310 310 310 310 310 308 305 301 297 293 289 286 283 280 277 273 270 268 266 265 263 261 259 256 253 249 245 239 236 236 237 240 241 242 242 240
266 263 257 254 256 262 270 274 275 274 274 277 280 282 282 285 288 290 291 293 294 295 296 297 299 299 300 300 299 300 305 308 309 308 309 313 316 316 312 311 312 314 316 317 315 313 312 311 310 310 311 311 313 313 313 311 307 303 298 293 289 285 282 279 275 271 268 265 264 263 262 262 260 258 256 252 248 242 237 233 232 234 236 238 239 239
263 263 261 261 260 258 260 267 271 273 277 282 283 282 280 282 284 287 289 293 296 298 299 300 300 300 302 305 305 305 306 308 308 308 309 312 315 316 313 311 312 314 317 317 315 313 311 310 310 311 312 313 315 316 315 313 309 304 299 294 290 286 282 278 274 271 268 266 265 264 263 262 262 260 258 255 250 246 241 237 234 232 233 234 236 237
256 259 265 267 263 256 255 261 269 277 282 284 282 280 279 281 282 285 288 292 295 297 299 299 299 300 302 304 304 304 303 305 306 307 308 311 315 317 311 311 312 313 316 318 316 313 311 310 310 311 312 313 314 315 315 313 309 305 301 296 291 287 283 280 276 273 271 269 267 266 265 263 262 261 259 257 253 249 245 242 239 238 236 236 236 237
263 266 270 271 267 262 260 263 271 280 285 284 281 280 280 280 281 283 286 289 291 293 294 294 295 297 299 300 300 300 300 302 304 306 307 310 314 314 309 310 311 312 315 317 316 313 310 309 309 309 310 311 313 313 312 310 307 304 301 297 293 289 285 281 278 275 273 271 269 268 267 266 264 263 261 258 255 251 248 245 243 242 241 241 241 241
274 275 276 276 274 270 268 270 275 281 286 286 284 282 280 279 279 280 283 286 290 292 292 293 296 298 301 304 307 307 304 305 306 307 307 308 310 311 310 310 310 311 313 316 315 312 309 308 307 307 308 309 310 311 310 308 306 303 301 298 294 290 286 282 279 276 273 271 270 269 268 268 267 265 263 261 258 255 252 249 247 246 246 246 246 246
282 282 283 285 283 279 275 275 278 282 285 284 281 278 275 274 275 277 280 287 293 296 298 301 306 312 318 322 323 317 309 312 312 309 307 306 308 310 310 310 310 309 311 313 312 310 307 307 306 306 307 308 309 309 309 307 305 303 301 298 294 291 287 283 280 276 273 271 270 268 268 268 267 266 265 263 261 260 257 255 254 253 252 252 252 252
284 284 286 286 284 281 277 278 279 280 280 277 275 275 276 279 282 286 291 300 306 310 314 313 313 315 319 323 321 313 307 310 311 309 306 304 306 310 311 310 309 308 309 311 311 309 307 306 305 305 305 306 308 309 308 308 306 304 302 299 295 292 288 285 281 278 275 272 270 268 267 267 266 265 264 263 262 262 261 260 259 259 258 258 259 259
278 278 279 278 277 274 272 272 273 274 276 277 279 283 288 293 296 299 304 311 314 313 310 305 304 307 311 313 312 307 302 306 308 307 305 303 304 307 311 309 308 307 308 310 311 310 308 306 304 302 302 304 306 308 309 308 307 305 302 300 297 294 290 287 283 280 277 274 271 269 268 267 266 264 264 263 262 261 261 261 261 261 261 261 261 261
273 273 273 272 272 270 269 269 271 274 279 284 289 294 298 299 299 300 305 308 308 304 299 297 298 302 305 306 305 302 300 302 303 303 304 302 302 305 310 308 308 308 308 309 311 311 309 306 303 301 301 302 305 308 309 308 307 305 302 300 297 294 291 289 285 283 279 276 273 271 269 267 266 265 264 263 263 262 262 262 262 262 262 262 263 263
271 271 272 273 274 275 275 276 279 283 288 292 295 297 299 299 298 298 301 303 301 297 294 295 298 300 303 303 302 302 303 299 296 298 302 300 300 303 307 307 307 309 310 311 311 312 313 310 307 305 305 305 306 308 309 308 307 305 303 301 298 296 293 290 287 284 281 278 275 272 270 268 266 266 265 264 264 264 263 264 264 264 264 264 265 265
279 279 280 282 284 286 287 290 292 295 296 297 298 297 298 298 298 298 299 299 297 294 293 294 296 298 299 300 300 301 304 297 293 296 301 298 297 300 302 303 305 308 312 312 313 315 318 315 312 310 310 309 309 309 310 310 309 308 306 304 301 298 296 293 289 286 283 280 277 274 272 270 268 267 266 265 265 265 265 265 265 265 266 265 266 266
296 297 297 299 300 301 301 302 302 301 300 299 298 297 297 298 298 297 297 296 294 293 293 293 294 295 295 293 291 291 295 290 291 295 297 294 293 295 298 299 301 305 309 310 312 314 317 313 309 308 310 310 311 312 313 314 313 311 309 306 303 301 298 295 292 288 284 281 278 275 273 271 269 268 267 266 265 265 265 265 266 266 266 266 266 266
295 297 300 302 303 304 304 304 303 302 301 299 299 297 297 296 296 295 294 293 293 292 291 292 292 292 291 288 284 282 283 286 289 292 292 290 291 293 295 297 298 301 305 305 306 308 310 308 306 306 309 311 313 314 316 317 316 313 310 307 305 303 301 298 294 290 286 283 280 277 275 273 271 269 267 266 265 265 264 264 265 266 266 266 266 267
290 292 295 297 298 298 298 298 299 298 297 297 296 295 294 293 292 292 292 291 291 290 289 289 289 289 289 287 285 283 282 284 287 290 291 290 290 291 293 295 297 299 300 301 302 302 303 306 308 310 311 313 314 317 318 319 317 315 312 310 307 306 304 300 295 291 287 284 282 279 277 274 272 269 267 265 264 264 263 263 264 265 266 266 267 267
286 288 290 291 291 291 292 292 293 293 293 292 292 291 290 289 289 288 289 289 289 288 287 287 287 286 285 284 283 282 281 279 281 285 290 289 289 289 291 293 295 297 299 301 302 304 305 308 310 312 314 314 315 317 319 318 317 316 315 313 311 309 306 301 295 290 287 284 283 281 278 276 273 270 267 265 263 263 262 262 263 264 265 266 267 267
285 286 287 287 288 288 289 290 291 292 292 292 291 290 290 289 288 288 287 287 287 287 287 286 285 284 282 281 279 278 274 270 273 280 286 286 287 288 289 291 293 296 298 300 302 304 305 307 309 310 312 313 314 316 318 317 316 316 316 316 315 312 308 303 297 291 287 284 282 280 279 277 274 271 269 266 264 263 262 262 262 262 264 265 266 267
290 290 290 290 290 290 290 291 292 294 294 294 294 294 293 292 291 290 289 288 287 286 285 284 283 281 280 279 279 277 272 267 270 277 283 285 285 285 287 288 291 294 296 298 300 302 303 304 306 308 310 311 313 316 316 315 314 314 315 316 316 314 310 305 298 292 288 285 282 280 278 277 275 273 271 269 267 265 264 263 262 262 263 264 265 266
293 293 293 293 292 292 292 292 293 294 294 295 295 295 296 295 294 293 291 290 288 286 284 283 281 279 278 277 276 277 275 271 271 275 280 282 283 283 284 286 288 291 292 294 297 299 301 302 305 307 308 309 311 312 313 311 310 310 311 313 314 313 310 305 299 293 288 284 282 280 279 277 276 274 273 271 269 268 266 265 264 264 264 264 264 265
295 294 294 294 293 292 292 292 293 293 293 294 294 294 295 295 295 294 292 291 289 286 284 282 280 277 276 274 273 273 273 272 272 274 277 279 279 280 281 284 285 287 290 292 294 296 298 300 302 304 307 308 308 309 308 308 308 310 312 313 313 312 309 306 301 295 289 285 283 281 280 279 278 276 275 273 271 270 269 268 267 266 266 265 265 265
295 295 294 294 292 291 292 292 293 293 293 292 292 293 293 293 293 292 291 290 289 286 284 281 279 277 275 273 272 271 271 270 270 271 272 274 275 276 278 280 283 285 287 289 291 293 295 297 299 301 304 305 306 306 306 306 308 311 313 313 312 311 310 309 305 300 295 290 287 284 282 281 281 280 278 276 274 273 271 270 270 269 268 267 266 266
295 294 294 293 291 290 290 291 292 292 292 292 291 291 290 290 290 289 289 288 287 286 284 281 279 277 275 273 272 271 270 268 268 268 269 269 270 272 274 277 280 283 285 286 288 290 292 295 297 299 301 302 304 304 305 306 309 312 314 314 314 314 313 312 310 305 300 294 290 286 284 283 282 281 280 279 277 275 274 272 271 270 270 269 268 268
294 293 292 291 290 290 290 291 291 291 291 290 290 290 289 289 288 287 286 286 285 285 284 282 280 277 274 272 270 269 267 267 266 266 266 266 267 268 271 274 277 280 283 285 287 289 291 293 295 297 299 300 301 302 302 305 309 312 314 315 315 314 312 312 310 307 302 296 290 286 284 282 281 280 280 279 278 277 276 274 272 271 270 269 268 268
293 291 291 290 290 291 291 291 291 290 289 289 289 289 289 289 288 287 286 286 286 286 286 286 284 283 280 277 273 270 267 265 264 264 264 264 265 266 268 271 275 278 281 284 286 289 291 292 294 295 297 298 298 299 301 304 308 311 313 313 312 310 309 310 311 309 305 301 296 291 286 283 281 279 278 277 277 277 276 275 274 272 271 269 268 267
293 291 290 290 290 291 291 291 291 291 290 290 289 289 288 288 287 286 286 286 287 288 289 289 289 287 286 285 283 279 274 269 266 264 264 264 265 266 268 271 274 277 281 284 287 289 291 292 293 293 295 296 297 298 301 306 309 311 312 312 313 313 315 315 314 312 309 305 301 297 292 287 282 279 276 275 275 276 276 276 275 274 272 271 270 269
293 291 290 290 289 289 289 289 289 290 290 289 289 288 288 287 286 285 285 285 286 287 288 288 287 286 286 286 286 284 281 277 273 270 267 267 267 268 270 273 276 279 282 285 287 289 291 291 292 293 294 295 296 298 302 307 310 312 313 313 313 314 315 317 317 316 312 308 305 301 296 291 286 281 278 276 275 275 275 275 275 275 274 273 272 272
290 289 289 288 287 286 286 287 287 288 288 288 287 287 287 286 285 284 284 284 285 285 285 285 285 285 285 285 285 284 282 280 279 276 273 271 270 271 273 276 280 283 285 286 287 287 288 288 290 291 292 293 295 298 303 307 310 311 312 313 314 314 314 316 319 319 318 315 312 309 304 299 293 288 283 279 277 276 276 276 276 276 275 275 275 274
288 288 287 285 285 284 284 285 285 286 286 286 286 286 285 285 284 283 283 283 283 283 283 282 282 282 283 284 285 285 284 283 282 282 281 279 277 276 277 279 282 284 286 286 285 284 284 285 286 287 289 291 293 296 300 305 308 310 311 312 312 313 315 317 320 322 321 320 317 315 311 307 302 297 292 287 282 279 278 277 276 276 276 276 276 276
291 290 289 287 286 285 285 285 285 286 286 286 286 285 284 283 282 282 281 280 280 280 280 279 279 279 280 282 283 283 284 283 283 284 286 287 287 286 285 285 286 286 285 283 282 281 280 281 281 283 285 289 292 295 299 302 305 307 308 309 310 311 313 317 320 322 321 320 320 318 315 312 307 303 299 294 289 285 282 280 278 277 277 277 277 277
292 292 291 290 289 288 287 287 287 288 287 287 287 286 284 283 281 280 279 278 277 277 277 278 278 278 278 278 279 280 280 281 281 283 286 289 291 292 292 293 293 291 288 283 280 277 276 276 277 279 282 286 290 294 298 301 302 302 303 304 305 308 311 314 317 319 320 320 320 318 317 314 311 308 305 301 296 291 287 284 282 280 279 278 279 279
291 291 291 290 290 289 289 289 290 289 289 288 288 286 284 282 280 278 276 276 275 276 277 278 278 277 277 277 277 278 279 279 281 284 286 288 290 291 293 294 295 295 292 287 282 278 275 274 274 275 278 283 288 292 296 298 298 298 298 299 301 304 308 311 314 317 318 319 319 319 317 316 314 312 309 306 303 299 295 291 288 285 284 282 282 281
290 290 290 289 289 289 290 290 290 289 289 288 287 285 283 281 278 276 274 274 274 274 276 277 277 277 277 278 278 279 279 280 282 285 287 288 288 288 289 290 291 290 289 286 284 282 280 278 277 277 279 282 286 289 292 294 295 295 295 296 299 302 306 309 313 316 318 319 319 319 318 317 316 314 312 308 306 303 300 297 295 293 291 290 288 286
291 290 290 289 289 289 290 290 289 288 288 286 285 283 281 279 277 276 274 273 273 274 274 274 275 276 276 277 278 279 280 281 284 287 289 290 289 287 285 284 283 282 280 279 278 278 277 279 281 283 285 286 288 289 290 291 292 294 294 296 300 303 306 309 313 316 317 317 317 316 316 314 313 312 311 307 304 302 301 300 299 297 296 295 294 292
Height
1515 1515 1514 1514 1513 1513 1512 1512 1512 1512 1511 1511 1511 1511 1511 1511 1511 1511 1511 1511 1511 1511 1511 1511 1511 1511 1511 1511 1511 1511 1511 1510 1510 1510 1510 1510 1510 1510 1510 1510 1510 1510 1510 1509 1509 1509 1509 1509 1508 1508 1508 1508 1508 1508 1508 1508 1507 1507 1507 1507 1507 1507 1507 1507 1507 1507 1507 1508 1508 1508 1508 1508 1507 1507 1508 1508 1509 1509 1510 1510 1511 1511 1511 1511 1511 1512
1514 1513 1513 1513 1512 1512 1511 1511 1511 1511 1511 1511 1511 1511 1511 1511 1511 1511 1511 1511 1511 1511 1511 1511 1511 1510 1510 1510 1510 1510 1510 1510 1510 1509 1509 1509 1509 1509 1509 1509 1508 1508 1508 1508 1508 1508 1507 1507 1507 1507 1507 1507 1507 1507 1507 1506 1506 1506 1506 1506 1506 1506 1506 1506 1506 1506 1506 1506 1506 1506 1506 1506 1506 1506 1507 1507 1507 1508 1508 1509 1509 1510 1510 1510 1510 1511
1512 1512 1512 1511 1511 1511 1511 1511 1511 1511 1511 1511 1511 1511 1511 1511 1511 1511 1511 1511 1511 1511 1510 1510 1510 1510 1510 1510 1510 1510 1509 1509 1509 1509 1508 1508 1508 1508 1508 1507 1507 1507 1507 1507 1507 1506 1506 1506 1506 1506 1506 1506 1506 1506 1506 1506 1505 1505 1505 1505 1505 1505 1505 1505 1505 1505 1505 1505 1505 1505 1506 1506 1506 1506 1506 1506 1506 1507 1507 1507 1508 1508 1508 1508 1509 1509
1511 1511 1511 1511 1510 1510 1510 1510 1510 1510 1510 1510 1510 1510 1510 1510 1510 1510 1510 1510 1510 1510 1510 1510 1509 1509 1509 1509 1509 1509 1508 1508 1508 1508 1507 1507 1507 1507 1506 1506 1506 1506 1506 1506 1506 1506 1506 1506 1506 1506 1505 1505 1505 1505 1505 1504 1504 1504 1504 1504 1504 1504 1504 1504 1504 1504 1504 1504 1504 1504 1504 1504 1505 1505 1505 1505 1505 1506 1506 1506 1506 1506 1507 1507 1507 1508
1510 1510 1510 1510 1510 1510 1510 1510 1510 1510 1510 1510 1510 1509 1509 1509 1510 1509 1509 1509 1509 1509 1509 1509 1508 1508 1508 1508 1508 1508 1507 1507 1507 1506 1506 1506 1506 1506 1505 1505 1505 1505 1505 1505 1505 1505 1505 1505 1504 1504 1504 1504 1504 1503 1503 1503 1503 1503 1503 1503 1502 1502 1502 1502 1502 1502 1503 1503 1503 1503 1503 1503 1503 1503 1504 1504 1504 1504 1505 1505 1505 1505 1506 1506 1506 1506
1510 1509 1509 1509 1509 1509 1509 1509 1509 1509 1509 1509 1509 1509 1509 1509 1509 1509 1509 1508 1508 1508 1508 1508 1507 1507 1506 1506 1507 1506 1506 1506 1506 1505 1505 1505 1505 1504 1504 1504 1504 1504 1504 1504 1504 1504 1503 1503 1503 1503 1503 1502 1502 1502 1502 1501 1501 1501 1501 1501 1501 1501 1501 1501 1501 1501 1501 1501 1501 1501 1502 1502 1502 1502 1502 1502 1503 1503 1503 1503 1504 1504 1504 1504 1505 1505
1509 1509 1508 1508 1508 1509 1509 1509 1509 1508 1508 1508 1508 1508 1508 1508 1508 1508 1507 1507 1507 1507 1507 1506 1506 1506 1505 1505 1505 1505 1505 1505 1504 1504 1504 1504 1503 1503 1503 1503 1503 1503 1503 1503 1502 1502 1502 1502 1502 1501 1501 1501 1501 1501 1501 1500 1500 1500 1500 1500 1500 1500 1500 1500 1500 1500 1500 1500 1500 1500 1500 1500 1500 1501 1501 1501 1501 1501 1502 1502 1502 1502 1503 1503 1503 1504
1508 1508 1508 1508 1508 1508 1508 1508 1508 1508 1508 1507 1507 1507 1506 1506 1506 1506 1506 1506 1506 1506 1506 1505 1505 1504 1504 1504 1504 1504 1504 1503 1503 1503 1502 1502 1502 1502 1502 1502 1502 1502 1501 1501 1501 1501 1501 1501 1501 1500 1500 1500 1500 1499 1499 1499 1499 1499 1499 1499 1499 1499 1499 1499 1499 1498 1498 1498 1498 1498 1498 1499 1499 1499 1499 1500 1500 1500 1500 1501 1501 1501 1501 1501 1501 1502
1507 1507 1507 1507 1507 1507 1507 1507 1507 1507 1507 1506 1506 1506 1506 1506 1505 1505 1505 1505 1505 1505 1505 1504 1504 1503 1503 1503 1503 1503 1502 1502 1502 1502 1501 1501 1501 1501 1501 1501 1501 1501 1501 1501 1500 1500 1500 1500 1499 1499 1499 1499 1498 1498 1498 1498 1498 1498 1498 1498 1498 1497 1497 1497 1497 1497 1497 1497 1497 1497 1497 1497 1497 1497 1498 1498 1498 1498 1499 1499 1499 1499 1500 1500 1500 1501
1507 1507 1506 1506 1506 1506 1506 1506 1506 1506 1506 1506 1506 1505 1505 1505 1505 1504 1504 1503 1503 1503 1504 1503 1503 1502 1502 1502 1502 1502 1501 1501 1501 1501 1501 1501 1500 1500 1500 1500 1500 1499 1499 1499 1499 1499 1499 1498 1498 1498 1498 1497 1497 1497 1497 1496 1496 1496 1496 1496 1496 1496 1496 1496 1496 1496 1496 1496 1496 1496 1496 1496 1496 1496 1496 1496 1496 1497 1497 1497 1497 1498 1498 1498 1499 1499
1506 1506 1506 1506 1506 1506 1506 1505 1505 1505 1505 1505 1504 1504 1504 1504 1504 1504 1503 1502 1502 1501 1502 1502 1502 1502 1501 1501 1501 1501 1501 1500 1500 1500 1500 1500 1499 1499 1499 1498 1498 1498 1498 1498 1497 1497 1497 1497 1497 1496 1496 1496 1496 1496 1495 1495 1495 1495 1495 1495 1495 1495 1494 1494 1494 1494 1494 1494 1494 1494 1494 1494 1495 1495 1495 1495 1495 1495 1496 1496 1496 1496 1496 1497 1497 1498
1505 1505 1505 1505 1505 1505 1504 1504 1504 1504 1504 1504 1503 1503 1503 1503 1503 1503 1503 1502 1501 1501 1501 1501 1501 1501 1501 1501 1500 1500 1500 1499 1499 1499 1498 1498 1498 1498 1497 1497 1497 1497 1496 1496 1496 1496 1496 1496 1495 1495 1495 1495 1494 1494 1494 1494 1493 1493 1493 1493 1493 1493 1493 1493 1493 1493 1493 1493 1493 1493 1493 1493 1493 1493 1493 1493 1494 1494 1494 1494 1494 1495 1495 1495 1496 1496
1504 1504 1504 1504 1504 1503 1503 1503 1503 1503 1503 1503 1502 1502 1501 1502 1502 1502 1502 1501 1501 1500 1500 1500 1500 1499 1499 1499 1499 1499 1498 1498 1498 1497 1497 1497 1496 1496 1496 1496 1495 1495 1495 1495 1494 1494 1494 1494 1494 1493 1493 1493 1493 1492 1492 1492 1492 1492 1492 1491 1491 1491 1491 1491 1491 1491 1491 1491 1491 1491 1491 1491 1491 1491 1492 1492 1492 1492 1493 1493 1493 1493 1494 1494 1495 1495
1503 1503 1503 1503 1502 1502 1502 1502 1502 1502 1501 1502 1501 1501 1501 1501 1501 1501 1501 1501 1500 1500 1500 1499 1499 1498 1498 1498 1498 1498 1497 1497 1496 1496 1496 1496 1496 1495 1495 1494 1494 1494 1493 1493 1493 1492 1492 1492 1492 1491 1491 1491 1491 1491 1491 1491 1490 1490 1490 1490 1490 1490 1490 1490 1490 1490 1490 1490 1490 1490 1490 1490 1490 1490 1490 1490 1491 1491 1491 1491 1492 1492 1493 1493 1494 1494
1502 1502 1502 1501 1501 1501 1501 1501 1501 1501 1501 1501 1501 1501 1501 1501 1500 1500 1500 1500 1499 1499 1498 1498 1498 1498 1497 1496 1496 1497 1496 1496 1496 1495 1495 1495 1495 1494 1493 1493 1492 1492 1492 1492 1491 1491 1491 1491 1490 1490 1490 1489 1489 1489 1489 1489 1488 1488 1488 1488 1488 1488 1488 1488 1488 1488 1488 1488 1488 1488 1488 1488 1488 1488 1489 1489 1489 1489 1490 1490 1491 1491 1491 1492 1492 1493
1501 1501 1501 1501 1501 1501 1501 1501 1501 1500 1500 1500 1500 1500 1500 1500 1499 1499 1499 1499 1498 1498 1498 1497 1498 1498 1497 1496 1496 1496 1495 1495 1494 1494 1494 1494 1494 1493 1492 1492 1491 1491 1491 1491 1491 1490 1490 1489 1489 1489 1488 1488 1488 1487 1487 1487 1487 1486 1486 1486 1486 1486 1486 1486 1486 1486 1486 1486 1486 1486 1486 1487 1487 1487 1487 1488 1488 1488 1489 1489 1490 1490 1491 1491 1491 1492
1500 1500 1500 1500 1500 1500 1499 1500 1500 1499 1499 1499 1499 1499 1499 1499 1498 1498 1498 1498 1498 1497 1497 1497 1497 1497 1497 1496 1495 1494 1494 1494 1493 1493 1493 1493 1493 1492 1491 1491 1491 1490 1490 1490 1489 1489 1488 1488 1488 1487 1487 1487 1486 1486 1486 1486 1486 1485 1485 1485 1485 1485 1485 1485 1485 1485 1485 1485 1485 1485 1485 1485 1486 1486 1486 1486 1487 1487 1488 1488 1488 1489 1490 1490 1491 1491
1499 1499 1499 1499 1499 1499 1498 1498 1498 1498 1498 1498 1498 1498 1498 1498 1498 1497 1497 1497 1497 1496 1496 1496 1496 1496 1496 1496 1495 1493 1493 1493 1492 1492 1491 1491 1491 1491 1491 1490 1490 1489 1489 1489 1488 1488 1487 1487 1486 1486 1486 1486 1485 1485 1485 1485 1484 1484 1484 1484 1484 1483 1483 1483 1483 1483 1483 1483 1484 1484 1484 1484 1484 1485 1485 1485 1486 1486 1486 1487 1488 1488 1489 1489 1490 1490
1498 1498 1498 1498 1498 1498 1497 1497 1497 1497 1497 1497 1497 1497 1497 1496 1496 1496 1496 1496 1496 1496 1495 1495 1495 1495 1495 1495 1494 1493 1492 1492 1491 1491 1490 1490 1490 1490 1490 1489 1488 1488 1488 1487 1487 1486 1486 1486 1486 1485 1485 1485 1485 1484 1484 1484 1483 1483 1483 1483 1482 1482 1482 1482 1482 1482 1482 1482 1483 1483 1483 1483 1483 1484 1484 1484 1485 1485 1485 1486 1486 1487 1488 1488 1489 1489
1497 1497 1497 1497 1497 1497 1497 1496 1496 1496 1496 1496 1496 1496 1496 1496 1496 1496 1495 1495 1495 1495 1494 1494 1494 1493 1493 1493 1493 1493 1492 1491 1491 1490 1489 1489 1489 1489 1489 1488 1488 1487 1487 1487 1486 1486 1485 1485 1485 1484 1484 1484 1484 1484 1483 1483 1483 1482 1482 1482 1482 1481 1481 1481 1481 1481 1481 1481 1482 1482 1482 1482 1482 1483 1483 1483 1484 1484 1484 1485 1485 1486 1486 1487 1487 1488
1496 1496 1496 1496 1496 1496 1496 1496 1495 1495 1495 1496 1496 1495 1495 1495 1495 1495 1494 1494 1494 1493 1493 1493 1493 1492 1492 1492 1492 1492 1491 1491 1490 1489 1488 1488 1488 1488 1488 1487 1487 1486 1486 1486 1486 1485 1485 1484 1484 1483 1483 1483 1483 1483 1482 1482 1482 1481 1481 1481 1481 1481 1481 1481 1481 1481 1481 1481 1481 1481 1481 1481 1481 1482 1482 1482 1483 1483 1483 1484 1484 1484 1485 1486 1486 1486
1496 1495 1495 1496 1496 1496 1495 1495 1494 1494 1495 1495 1495 1494 1494 1494 1494 1494 1493 1493 1493 1493 1492 1492 1492 1492 1491 1491 1491 1491 1491 1490 1490 1489 1488 1487 1487 1487 1487 1486 1486 1486 1485 1485 1485 1484 1484 1483 1483 1483 1482 1482 1482 1482 1482 1481 1481 1481 1481 1481 1481 1480 1480 1480 1480 1480 1480 1480 1481 1481 1481 1481 1481 1481 1481 1481 1482 1482 1482 1483 1483 1483 1484 1484 1485 1485
1495 1494 1494 1494 1495 1495 1494 1494 1493 1493 1494 1494 1494 1494 1493 1493 1493 1493 1493 1492 1492 1492 1491 1491 1491 1491 1491 1491 1490 1490 1490 1490 1489 1488 1487 1486 1486 1486 1486 1486 1485 1485 1484 1484 1484 1483 1483 1483 1482 1482 1482 1482 1481 1481 1481 1481 1481 1480 1480 1480 1480 1480 1480 1480 1480 1480 1480 1480 1480 1480 1480 1480 1480 1480 1480 1481 1481 1481 1481 1482 1482 1482 1483 1483 1484 1484
1494 1493 1493 1493 1493 1494 1493 1493 1493 1493 1493 1493 1493 1493 1493 1492 1492 1492 1492 1492 1491 1491 1491 1491 1490 1490 1490 1490 1489 1489 1489 1489 1488 1487 1487 1486 1485 1485 1486 1485 1484 1484 1484 1484 1483 1483 1482 1482 1482 1481 1481 1481 1481 1481 1481 1480 1480 1480 1479 1479 1479 1479 1479 1479 1479 1479 1479 1479 1479 1479 1479 1479 1479 1479 1480 1480 1480 1480 1481 1481 1481 1481 1482 1482 1483 1483
1493 1492 1492 1492 1493 1493 1493 1492 1492 1492 1492 1492 1492 1492 1492 1491 1491 1491 1491 1491 1490 1490 1490 1489 1489 1489 1489 1489 1488 1488 1487 1487 1487 1487 1486 1485 1484 1484 1485 1484 1484 1483 1483 1483 1483 1482 1482 1481 1481 1481 1480 1480 1480 1480 1480 1479 1479 1479 1479 1478 1478 1478 1478 1478 1478 1478 1478 1478 1478 1478 1478 1478 1478 1478 1479 1479 1479 1479 1480 1480 1480 1481 1481 1481 1481 1482
1492 1492 1492 1492 1492 1492 1492 1492 1492 1492 1492 1492 1491 1491 1491 1491 1490 1490 1490 1490 1489 1489 1488 1488 1488 1488 1488 1488 1488 1487 1487 1486 1486 1486 1485 1485 1484 1483 1484 1483 1483 1482 1482 1482 1482 1481 1481 1481 1480 1480 1480 1479 1479 1479 1479 1479 1478 1478 1478 1477 1477 1477 1477 1477 1477 1477 1477 1477 1477 1477 1477 1477 1477 1477 1478 1478 1478 1478 1479 1479 1479 1479 1480 1480 1480 1481
1491 1491 1491 1491 1491 1491 1491 1491 1491 1491 1491 1491 1491 1490 1490 1489 1489 1489 1489 1489 1488 1488 1488 1487 1487 1487 1487 1487 1487 1487 1486 1486 1485 1485 1485 1484 1483 1483 1483 1482 1482 1481 1481 1481 1481 1481 1480 1480 1480 1479 1479 1479 1478 1478 1478 1478 1477 1477 1477 1477 1476 1476 1476 1476 1476 1476 1476 1476 1476 1476 1476 1476 1476 1476 1476 1477 1477 1477 1477 1478 1478 1478 1479 1479 1479 1479
1490 1490 1490 1490 1490 1490 1490 1490 1490 1490 1490 1490 1490 1489 1489 1488 1488 1488 1488 1488 1488 1487 1487 1487 1486 1486 1486 1486 1486 1486 1486 1486 1485 1484 1484 1483 1482 1482 1482 1482 1481 1481 1480 1480 1480 1480 1480 1479 1479 1479 1478 1478 1478 1478 1477 1477 1477 1476 1476 1476 1476 1475 1475 1475 1475 1475 1475 1475 1475 1475 1475 1475 1475 1476 1476 1476 1476 1476 1476 1476 1477 1477 1477 1477 1477 1478
1489 1489 1489 1489 1489 1489 1489 1489 1489 1489 1489 1489 1488 1488 1488 1487 1487 1487 1487 1487 1487 1486 1486 1486 1486 1486 1485 1485 1485 1485 1485 1485 1484 1483 1483 1482 1482 1481 1481 1481 1480 1480 1479 1479 1479 1479 1479 1478 1478 1478 1478 1477 1477 1477 1476 1476 1476 1476 1475 1475 1474 1474 1474 1474 1474 1474 1474 1474 1474 1474 1474 1474 1474 1474 1474 1475 1475 1475 1475 1475 1476 1476 1476 1476 1476 1476
1488 1488 1488 1488 1488 1488 1488 1488 1488 1487 1487 1487 1487 1487 1486 1486 1486 1486 1486 1486 1486 1486 1485 1485 1485 1485 1484 1484 1483 1483 1483 1483 1483 1483 1482 1482 1481 1481 1481 1480 1480 1479 1479 1478 1477 1477 1477 1477 1477 1477 1477 1476 1476 1476 1476 1475 1475 1474 1474 1473 1473 1473 1473 1472 1472 1472 1472 1472 1472 1472 1472 1472 1473 1473 1473 1473 1473 1474 1474 1474 1474 1474 1474 1474 1474 1475
1486 1486 1486 1486 1486 1486 1486 1486 1486 1486 1486 1486 1486 1486 1486 1485 1485 1485 1485 1485 1485 1484 1484 1484 1484 1484 1483 1483 1483 1482 1482 1482 1482 1482 1482 1481 1481 1480 1480 1479 1479 1478 1478 1478 1477 1476 1476 1476 1476 1476 1476 1476 1475 1475 1475 1474 1474 1473 1473 1472 1472 1472 1471 1471 1471 1471 1471 1471 1471 1471 1471 1471 1471 1471 1471 1472 1472 1472 1472 1472 1472 1472 1472 1473 1473 1473
1485 1485 1485 1485 1485 1485 1485 1485 1485 1485 1485 1485 1485 1485 1484 1484 1484 1484 1484 1484 1483 1483 1483 1483 1483 1482 1482 1482 1482 1482 1482 1481 1481 1481 1481 1480 1480 1479 1479 1478 1478 1478 1478 1477 1477 1476 1475 1475 1475 1475 1474 1474 1474 1474 1474 1473 1473 1472 1472 1471 1471 1471 1470 1470 1470 1469 1469 1469 1469 1469 1470 1470 1470 1470 1470 1470 1470 1471 1471 1471 1471 1471 1471 1471 1471 1471
1485 1484 1484 1484 1484 1484 1484 1484 1484 1484 1484 1483 1483 1483 1483 1483 1483 1483 1483 1482 1482 1482 1482 1482 1481 1481 1481 1481 1481 1481 1481 1480 1480 1479 1479 1479 1479 1478 1478 1478 1477 1477 1477 1476 1476 1476 1475 1474 1473 1473 1473 1473 1472 1472 1472 1472 1471 1471 1471 1470 1470 1469 1469 1469 1468 1468 1467 1467 1467 1467 1468 1468 1468 1468 1468 1469 1469 1469 1469 1469 1469 1469 1469 1469 1470 1470
1484 1484 1484 1483 1483 1483 1483 1483 1483 1482 1482 1482 1482 1482 1482 1482 1482 1482 1482 1481 1481 1481 1481 1481 1481 1480 1480 1480 1479 1479 1480 1480 1479 1478 1478 1478 1477 1477 1477 1476 1476 1476 1476 1475 1475 1475 1474 1473 1472 1472 1471 1471 1471 1471 1471 1470 1470 1470 1469 1469 1469 1468 1468 1467 1467 1466 1466 1466 1466 1466 1466 1466 1466 1466 1467 1467 1467 1467 1467 1468 1468 1468 1468 1468 1468 1468
1483 1483 1483 1482 1482 1482 1482 1482 1481 1481 1481 1481 1481 1481 1481 1481 1481 1481 1481 1480 1480 1480 1480 1480 1479 1479 1479 1479 1478 1478 1479 1479 1478 1477 1477 1477 1476 1476 1476 1475 1475 1475 1475 1474 1474 1473 1473 1472 1472 1471 1470 1469 1469 1469 1469 1469 1468 1468 1468 1467 1467 1467 1466 1466 1465 1465 1464 1464 1464 1464 1464 1464 1464 1465 1465 1465 1465 1466 1466 1466 1466 1466 1466 1466 1466 1466
1482 1482 1482 1481 1481 1481 1481 1481 1481 1480 1480 1480 1480 1479 1479 1479 1479 1479 1479 1479 1479 1479 1479 1478 1478 1478 1478 1478 1477 1477 1477 1477 1476 1476 1476 1476 1476 1475 1475 1474 1474 1474 1474 1473 1473 1472 1471 1471 1471 1470 1470 1468 1468 1468 1468 1468 1467 1467 1466 1466 1466 1465 1465 1464 1464 1463 1463 1462 1462 1462 1462 1462 1462 1463 1463 1463 1463 1464 1464 1464 1464 1465 1465 1465 1465 1465
1481 1481 1481 1481 1480 1480 1480 1480 1479 1479 1479 1479 1478 1478 1478 1478 1478 1478 1477 1477 1477 1477 1477 1477 1477 1477 1477 1476 1476 1476 1476 1476 1476 1475 1475 1475 1475 1474 1474 1473 1473 1473 1473 1472 1472 1471 1471 1470 1469 1469 1468 1468 1467 1466 1466 1466 1466 1465 1465 1465 1464 1464 1463 1463 1462 1462 1461 1461 1461 1461 1461 1461 1461 1461 1461 1461 1462 1462 1462 1462 1462 1463 1463 1463 1463 1463
1480 1480 1480 1479 1479 1479 1479 1478 1478 1478 1478 1478 1477 1477 1477 1477 1476 1476 1476 1476 1476 1476 1476 1476 1476 1476 1475 1475 1475 1475 1475 1475 1475 1474 1474 1474 1473 1473 1473 1472 1472 1472 1472 1472 1471 1471 1470 1469 1468 1467 1467 1466 1466 1466 1465 1465 1464 1464 1464 1463 1463 1463 1462 1462 1461 1461 1461 1460 1460 1460 1459 1459 1459 1459 1460 1460 1460 1460 1460 1460 1461 1461 1461 1461 1461 1462
1479 1479 1478 1478 1478 1478 1477 1477 1477 1477 1477 1476 1476 1476 1476 1476 1475 1475 1475 1475 1475 1474 1474 1474 1474 1474 1474 1474 1474 1474 1474 1474 1473 1473 1473 1473 1472 1472 1472 1471 1471 1471 1471 1471 1470 1470 1469 1468 1467 1467 1466 1465 1465 1465 1464 1463 1463 1462 1462 1462 1461 1461 1461 1461 1460 1460 1460 1459 1459 1459 1458 1458 1458 1458 1458 1458 1458 1458 1458 1459 1459 1459 1459 1459 1460 1460
1478 1477 1477 1477 1477 1477 1476 1476 1476 1476 1476 1475 1475 1475 1475 1474 1474 1474 1474 1473 1473 1473 1473 1473 1473 1472 1472 1472 1472 1472 1472 1472 1472 1472 1472 1472 1471 1471 1471 1470 1470 1470 1470 1469 1469 1469 1468 1467 1467 1466 1466 1465 1464 1463 1462 1462 1462 1461 1461 1460 1460 1460 1460 1460 1459 1459 1459 1458 1458 1458 1457 1457 1457 1457 1457 1457 1457 1457 1457 1457 1457 1457 1457 1458 1458 1458
1476 1476 1476 1476 1476 1475 1475 1475 1475 1475 1474 1474 1474 1473 1473 1473 1473 1472 1472 1472 1472 1471 1471 1471 1471 1471 1471 1471 1471 1471 1471 1471 1471 1471 1471 1471 1470 1470 1470 1469 1469 1469 1469 1468 1468 1467 1467 1466 1466 1465 1465 1464 1463 1462 1461 1461 1461 1461 1460 1459 1459 1458 1458 1459 1458 1458 1458 1458 1457 1457 1457 1456 1456 1456 1456 1456 1456 1456 1456 1456 1456 1456 1456 1456 1456 1456
1476 1475 1475 1475 1475 1474 1474 1474 1473 1473 1473 1473 1472 1472 1472 1471 1471 1471 1471 1470 1470 1470 1470 1470 1470 1469 1469 1470 1470 1470 1470 1470 1470 1470 1470 1469 1469 1469 1469 1468 1468 1468 1467 1467 1466 1466 1466 1465 1465 1464 1463 1463 1462 1461 1461 1460 1460 1460 1459 1459 1458 1457 1457 1457 1457 1457 1457 1456 1456 1456 1456 1456 1456 1455 1455 1455 1455 1454 1454 1454 1454 1454 1454 1454 1455 1455
1474 1474 1474 1474 1473 1473 1473 1472 1472 1472 1471 1471 1471 1471 1471 1470 1470 1470 1469 1469 1469 1469 1469 1468 1468 1468 1468 1468 1468 1468 1468 1468 1468 1468 1468 1468 1468 1468 1467 1467 1467 1467 1466 1466 1465 1465 1464 1464 1463 1462 1462 1461 1461 1460 1459 1459 1459 1459 1459 1458 1457 1456 1456 1456 1456 1456 1456 1456 1456 1455 1455 1455 1454 1454 1454 1454 1453 1453 1453 1453 1453 1453 1453 1453 1453 1453
1473 1473 1473 1472 1472 1472 1471 1471 1471 1471 1470 1470 1470 1470 1469 1469 1469 1469 1468 1468 1468 1468 1467 1467 1467 1467 1466 1466 1466 1466 1466 1466 1467 1467 1467 1467 1467 1466 1466 1466 1466 1466 1465 1465 1464 1463 1463 1462 1461 1461 1461 1460 1460 1459 1459 1458 1458 1458 1457 1457 1457 1456 1455 1455 1455 1455 1455 1455 1455 1454 1454 1454 1453 1453 1453 1453 1452 1452 1452 1452 1452 1451 1451 1451 1451 1451
1472 1472 1471 1471 1471 1471 1470 1470 1470 1470 1469 1469 1468 1468 1468 1468 1468 1467 1467 1467 1467 1466 1466 1466 1466 1466 1465 1465 1465 1465 1465 1465 1465 1465 1465 1465 1465 1465 1465 1465 1465 1464 1464 1463 1463 1462 1461 1461 1460 1460 1459 1459 1458 1458 1458 1457 1457 1457 1456 1456 1456 1455 1455 1455 1454 1454 1454 1453 1453 1453 1453 1452 1452 1452 1451 1451 1451 1451 1451 1451 1451 1450 1450 1450 1450 1450
1471 1471 1470 1470 1470 1469 1469 1469 1469 1468 1468 1467 1467 1467 1467 1467 1466 1466 1466 1466 1466 1466 1465 1465 1465 1464 1464 1464 1464 1464 1464 1464 1463 1463 1463 1464 1464 1464 1464 1464 1463 1463 1462 1462 1461 1461 1460 1460 1459 1459 1458 1457 1457 1457 1457 1456 1456 1456 1456 1455 1455 1454 1454 1454 1453 1453 1453 1452 1452 1452 1451 1451 1451 1451 1450 1450 1450 1450 1450 1450 1449 1449 1449 1449 1449 1448
1469 1469 1469 1468 1468 1468 1468 1467 1467 1467 1466 1466 1466 1466 1466 1466 1466 1465 1465 1465 1465 1464 1464 1464 1463 1463 1463 1463 1463 1462 1462 1462 1462 1462 1462 1462 1462 1462 1462 1462 1462 1461 1461 1460 1460 1459 1459 1458 1458 1457 1457 1456 1456 1456 1456 1456 1455 1455 1455 1454 1454 1453 1453 1453 1453 1452 1452 1451 1451 1451 1451 1450 1450 1449 1449 1448 1448 1448 1448 1448 1448 1448 1448 1447 1447 1447
1468 1467 1467 1467 1466 1466 1466 1466 1466 1466 1465 1465 1465 1465 1465 1464 1464 1464 1464 1463 1463 1463 1463 1462 1462 1462 1461 1461 1461 1461 1461 1461 1461 1461 1461 1461 1460 1460 1460 1460 1460 1459 1459 1459 1458 1458 1457 1457 1456 1456 1456 1456 1455 1455 1455 1455 1454 1454 1454 1453 1453 1452 1452 1452 1452 1451 1451 1451 1451 1450 1450 1449 1448 1448 1447 1447 1446 1446 1446 1446 1446 1446 1446 1446 1446 1446
1466 1466 1466 1465 1465 1465 1465 1464 1464 1464 1464 1464 1463 1463 1463 1463 1463 1463 1462 1462 1462 1461 1461 1461 1461 1461 1460 1460 1460 1460 1460 1460 1460 1460 1460 1460 1459 1459 1458 1458 1458 1457 1457 1457 1456 1456 1456 1455 1455 1455 1455 1455 1454 1454 1453 1453 1453 1453 1453 1452 1452 1451 1451 1451 1451 1450 1450 1450 1449 1449 1448 1448 1447 1447 1446 1445 1444 1444 1444 1444 1444 1444 1444 1444 1444 1444
1465 1465 1464 1464 1464 1463 1463 1463 1463 1463 1462 1462 1462 1462 1461 1461 1461 1461 1461 1461 1461 1460 1460 1460 1460 1459 1459 1459 1459 1459 1459 1459 1459 1459 1459 1459 1458 1458 1458 1457 1457 1456 1456 1455 1455 1455 1454 1454 1453 1453 1454 1454 1453 1453 1453 1452 1452 1452 1451 1451 1451 1451 1450 1450 1449 1449 1448 1448 1448 1447 1447 1446 1446 1445 1445 1444 1443 1442 1441 1441 1441 1441 1442 1442 1442 1442
1464 1463 1463 1462 1462 1462 1462 1461 1461 1461 1461 1461 1461 1460 1460 1460 1460 1460 1459 1459 1459 1459 1459 1458 1458 1458 1458 1457 1457 1457 1457 1457 1457 1457 1457 1457 1457 1457 1456 1456 1456 1456 1455 1454 1454 1453 1453 1452 1451 1451 1451 1452 1452 1452 1452 1451 1451 1451 1450 1450 1450 1449 1449 1448 1448 1447 1447 1446 1446 1446 1445 1445 1444 1444 1443 1443 1442 1441 1440 1439 1439 1439 1440 1440 1440 1440